• In Netherlands
  • List of Countries
  • For 7 days
  • Water Temperature
  • Satellite Maps
  • Weather Map
  • Weather Widgets
  • user-avatar
    Login

    Hourly Weather Salzburg

    Today, 18 January, Thursday

    Time Temperature Precipitation Wind Pressure Humidity
    00:00 -11°C° 0.7 mm 4 mps 618 mmHg 93%
    01:00 -9°C° 0 mm 2 mps 619 mmHg 93%
    02:00 -9°C° 0.5 mm 2 mps 619 mmHg 93%
    03:00 -9°C° 0.5 mm 2 mps 619 mmHg 93%
    04:00 -9°C° 0.5 mm 2 mps 619 mmHg 93%
    05:00 -9°C° 0.5 mm 2 mps 619 mmHg 92%
    06:00 -9°C° 0.5 mm 2 mps 619 mmHg 91%
    07:00 -9°C° 0 mm 2 mps 618 mmHg 90%
    08:00 -8°C° 0.5 mm 2 mps 618 mmHg 90%
    09:00 -8°C° 0.5 mm 3 mps 618 mmHg 90%
    10:00 -8°C° 0.5 mm 3 mps 617 mmHg 89%
    11:00 -7°C° 0.6 mm 3 mps 617 mmHg 88%
    12:00 -6°C° 0.6 mm 3 mps 617 mmHg 87%
    13:00 -5°C° 0.6 mm 3 mps 617 mmHg 86%
    14:00 -5°C° 0.1 mm 3 mps 616 mmHg 86%
    15:00 -4°C° 0.1 mm 3 mps 616 mmHg 86%
    16:00 -4°C° 0.1 mm 3 mps 616 mmHg 86%
    17:00 -5°C° 0.1 mm 3 mps 616 mmHg 85%
    18:00 -5°C° 0.1 mm 3 mps 615 mmHg 84%
    19:00 -6°C° 0.1 mm 3 mps 615 mmHg 83%
    20:00 -6°C° 0.9 mm 3 mps 615 mmHg 86%
    21:00 -5°C° 0.9 mm 2 mps 616 mmHg 90%
    22:00 -5°C° 0.9 mm 2 mps 616 mmHg 93%
    23:00 -5°C° 1.5 mm 2 mps 616 mmHg 94%

    Tomorrow, 19 January, Friday

    Time Temperature Precipitation Wind Pressure Humidity
    00:00 -3°C° 1.5 mm 1 mps 616 mmHg 94%
    01:00 -3°C° 1.5 mm 1 mps 616 mmHg 95%
    02:00 -3°C° 1.7 mm 1 mps 616 mmHg 95%
    03:00 -3°C° 1.7 mm 1 mps 616 mmHg 95%
    04:00 -3°C° 1.7 mm 1 mps 616 mmHg 95%
    05:00 -3°C° 1.8 mm 1 mps 616 mmHg 95%
    06:00 -5°C° 1.8 mm 2 mps 616 mmHg 95%
    07:00 -5°C° 1.8 mm 2 mps 616 mmHg 95%
    08:00 -5°C° 1.2 mm 2 mps 617 mmHg 95%
    09:00 -5°C° 1.2 mm 2 mps 617 mmHg 95%
    10:00 -4°C° 1.2 mm 2 mps 618 mmHg 95%
    11:00 -5°C° 0.7 mm 2 mps 618 mmHg 94%
    12:00 -5°C° 0.7 mm 2 mps 618 mmHg 94%
    13:00 -5°C° 0.7 mm 2 mps 618 mmHg 93%
    14:00 -5°C° 0.3 mm 2 mps 618 mmHg 93%
    15:00 -6°C° 0.3 mm 2 mps 618 mmHg 93%
    16:00 -6°C° 0.3 mm 2 mps 618 mmHg 93%
    17:00 -7°C° 0.2 mm 2 mps 618 mmHg 93%
    18:00 -8°C° 0.2 mm 2 mps 619 mmHg 93%
    19:00 -8°C° 0.2 mm 2 mps 619 mmHg 94%
    20:00 -9°C° 0.2 mm 2 mps 619 mmHg 94%
    21:00 -9°C° 0.2 mm 2 mps 619 mmHg 94%
    22:00 -9°C° 0.2 mm 2 mps 619 mmHg 93%
    23:00 -10°C° 0.2 mm 2 mps 619 mmHg 92%

    Day after tomorrow, 20 January, Saturday

    Time Temperature Precipitation Wind Pressure Humidity
    00:00 -10°C° 0.2 mm 2 mps 619 mmHg 92%
    01:00 -10°C° 0.2 mm 2 mps 619 mmHg 91%
    02:00 -10°C° 0.1 mm 2 mps 619 mmHg 90%
    03:00 -10°C° 0.1 mm 2 mps 619 mmHg 90%
    04:00 -10°C° 0.1 mm 2 mps 619 mmHg 90%
    05:00 -10°C° 0.5 mm 2 mps 619 mmHg 90%
    06:00 -10°C° 0.5 mm 2 mps 619 mmHg 90%
    07:00 -10°C° 0.5 mm 2 mps 619 mmHg 90%
    08:00 -9°C° 0.1 mm 2 mps 619 mmHg 89%
    09:00 -8°C° 0.1 mm 2 mps 619 mmHg 88%
    10:00 -8°C° 0.1 mm 2 mps 619 mmHg 86%
    11:00 -7°C° 0.1 mm 2 mps 619 mmHg 85%
    12:00 -6°C° 0.1 mm 2 mps 618 mmHg 85%
    13:00 -5°C° 0.1 mm 2 mps 618 mmHg 84%
    14:00 -6°C° 0.1 mm 2 mps 617 mmHg 86%
    15:00 -6°C° 0.1 mm 2 mps 616 mmHg 87%
    16:00 -4°C° 0.1 mm 1 mps 616 mmHg 89%
    17:00 -7°C° 0.2 mm 2 mps 615 mmHg 90%
    18:00 -7°C° 0.2 mm 2 mps 614 mmHg 91%
    19:00 -8°C° 0.2 mm 2 mps 614 mmHg 92%
    20:00 -8°C° 0.7 mm 2 mps 614 mmHg 93%
    21:00 -8°C° 0.7 mm 2 mps 614 mmHg 94%
    22:00 -8°C° 0.7 mm 2 mps 614 mmHg 95%
    23:00 -8°C° 1.4 mm 2 mps 614 mmHg 96%

    21 January, Sunday

    Time Temperature Precipitation Wind Pressure Humidity
    00:00 -8°C° 1.4 mm 2 mps 615 mmHg 96%
    01:00 -9°C° 1.4 mm 3 mps 615 mmHg 96%
    02:00 -9°C° 0.9 mm 3 mps 616 mmHg 96%
    03:00 -10°C° 0.9 mm 3 mps 617 mmHg 95%
    04:00 -12°C° 0.9 mm 3 mps 617 mmHg 95%
    05:00 -12°C° 0.6 mm 3 mps 618 mmHg 95%
    06:00 -12°C° 0.6 mm 3 mps 619 mmHg 95%
    07:00 -12°C° 0.6 mm 3 mps 619 mmHg 95%
    08:00 -12°C° 0.6 mm 3 mps 620 mmHg 94%
    09:00 -12°C° 0.6 mm 3 mps 621 mmHg 93%
    10:00 -12°C° 0.6 mm 3 mps 621 mmHg 93%
    11:00 -10°C° 0.3 mm 3 mps 621 mmHg 91%
    12:00 -10°C° 0.3 mm 3 mps 622 mmHg 88%
    13:00 -10°C° 0.3 mm 3 mps 622 mmHg 86%
    14:00 -9°C° 0.1 mm 2 mps 622 mmHg 87%
    15:00 -9°C° 0.1 mm 2 mps 622 mmHg 88%
    16:00 -9°C° 0.1 mm 1 mps 622 mmHg 89%
    17:00 -10°C° 0 mm 1 mps 622 mmHg 89%
    18:00 -11°C° 0 mm 1 mps 622 mmHg 89%
    19:00 -12°C° 0 mm 1 mps 622 mmHg 88%
    20:00 -12°C° 0.1 mm 1 mps 622 mmHg 89%
    21:00 -11°C° 0.1 mm 1 mps 622 mmHg 89%
    22:00 -10°C° 0.1 mm 1 mps 622 mmHg 89%
    23:00 -10°C° 0.7 mm 1 mps 622 mmHg 91%

    22 January, Monday

    Time Temperature Precipitation Wind Pressure Humidity
    00:00 -9°C° 0.7 mm 1 mps 622 mmHg 92%
    01:00 -8°C° 0.7 mm 1 mps 622 mmHg 93%
    02:00 -7°C° 1.8 mm 1 mps 622 mmHg 94%
    03:00 -7°C° 1.8 mm 1 mps 622 mmHg 95%
    04:00 -6°C° 1.8 mm 1 mps 622 mmHg 96%
    05:00 -4°C° 2.4 mm 1 mps 622 mmHg 97%
    06:00 -4°C° 2.4 mm 1 mps 623 mmHg 97%
    07:00 -3°C° 2.4 mm 1 mps 623 mmHg 98%
    08:00 -3°C° 1.8 mm 1 mps 623 mmHg 98%
    09:00 -2°C° 1.8 mm 1 mps 624 mmHg 98%
    10:00 -1°C° 1.8 mm 1 mps 624 mmHg 98%
    11:00 -1°C° 1.5 mm 1 mps 625 mmHg 98%
    12:00 -1°C° 1.5 mm 1 mps 625 mmHg 98%
    13:00 0°C° 1.5 mm 1 mps 625 mmHg 99%
    14:00 -2°C° 0.9 mm 2 mps 626 mmHg 98%
    15:00 -2°C° 0.9 mm 2 mps 626 mmHg 98%
    16:00 -2°C° 0.9 mm 2 mps 626 mmHg 98%
    17:00 -2°C° 1 mm 2 mps 626 mmHg 97%
    18:00 -2°C° 1 mm 2 mps 626 mmHg 97%
    19:00 -2°C° 1 mm 2 mps 627 mmHg 96%
    20:00 -2°C° 0.3 mm 2 mps 627 mmHg 96%
    21:00 -3°C° 0.3 mm 2 mps 627 mmHg 96%
    22:00 -3°C° 0.3 mm 2 mps 627 mmHg 97%
    23:00 -2°C° 1.2 mm 2 mps 627 mmHg 97%

    23 January, Tuesday

    Time Temperature Precipitation Wind Pressure Humidity
    00:00 -2°C° 1.2 mm 2 mps 627 mmHg 97%
    01:00 -2°C° 1.2 mm 2 mps 627 mmHg 98%
    02:00 -2°C° 2 mm 2 mps 627 mmHg 98%
    03:00 -1°C° 2 mm 2 mps 628 mmHg 98%
    04:00 -1°C° 2 mm 2 mps 628 mmHg 98%
    05:00 -1°C° 0.6 mm 2 mps 628 mmHg 98%
    06:00 -1°C° 0.6 mm 2 mps 628 mmHg 97%
    07:00 -2°C° 0.6 mm 2 mps 629 mmHg 97%
    08:00 -2°C° 0.1 mm 2 mps 629 mmHg 98%
    09:00 -1°C° 0.1 mm 2 mps 629 mmHg 98%
    10:00 -1°C° 0.1 mm 2 mps 629 mmHg 98%
    11:00 -1°C° 0.3 mm 2 mps 629 mmHg 98%
    12:00 -1°C° 0.3 mm 2 mps 629 mmHg 98%
    13:00 -1°C° 0.3 mm 2 mps 629 mmHg 98%
    14:00 -1°C° 0.2 mm 2 mps 630 mmHg 98%
    15:00 -1°C° 0.2 mm 2 mps 630 mmHg 98%
    16:00 -1°C° 0.2 mm 2 mps 630 mmHg 97%
    17:00 -2°C° 0.1 mm 2 mps 630 mmHg 96%
    18:00 -2°C° 0.1 mm 2 mps 631 mmHg 94%
    19:00 -2°C° 0.1 mm 2 mps 631 mmHg 93%
    20:00 -3°C° 0 mm 2 mps 631 mmHg 93%
    21:00 -3°C° 0 mm 2 mps 631 mmHg 93%
    22:00 -3°C° 0 mm 2 mps 631 mmHg 92%
    23:00 -3°C° 0 mm 2 mps 631 mmHg 92%
    Show more